TimeCST,TemperatureF,Dew PointF,Humidity,Sea Level PressureIn,VisibilityMPH,Wind Direction,Wind SpeedMPH,Gust SpeedMPH,PrecipitationIn,Events,Conditions,WindDirDegrees,DateUTC
12:53 AM,51.1,45.0,80,30.21,10.0,Calm,Calm,-,N/A,,Clear,0,2012-11-21 06:53:00
1:53 AM,46.9,42.1,83,30.20,10.0,Calm,Calm,-,N/A,,Clear,0,2012-11-21 07:53:00
2:53 AM,46.9,43.0,86,30.22,10.0,Calm,Calm,-,N/A,,Clear,0,2012-11-21 08:53:00
3:53 AM,44.1,41.0,89,30.22,10.0,Calm,Calm,-,N/A,,Clear,0,2012-11-21 09:53:00
4:53 AM,45.0,42.1,90,30.23,10.0,Calm,Calm,-,N/A,,Clear,0,2012-11-21 10:53:00
5:53 AM,46.0,42.1,86,30.25,10.0,Calm,Calm,-,N/A,,Clear,0,2012-11-21 11:53:00
6:53 AM,44.1,41.0,89,30.28,10.0,Calm,Calm,-,N/A,,Clear,0,2012-11-21 12:53:00
7:53 AM,46.9,42.1,83,30.30,10.0,Calm,Calm,-,N/A,,Clear,0,2012-11-21 13:53:00
8:53 AM,55.9,48.0,75,30.30,10.0,Calm,Calm,-,N/A,,Clear,0,2012-11-21 14:53:00
9:53 AM,66.9,50.0,54,30.29,10.0,ESE,6.9,-,N/A,,Clear,110,2012-11-21 15:53:00
10:53 AM,70.0,48.9,47,30.29,10.0,SE,9.2,-,N/A,,Clear,130,2012-11-21 16:53:00
11:53 AM,73.9,52.0,46,30.25,10.0,South,12.7,-,N/A,,Clear,170,2012-11-21 17:53:00
12:53 PM,75.9,48.9,38,30.21,10.0,SSE,11.5,-,N/A,,Clear,160,2012-11-21 18:53:00
1:53 PM,78.1,46.9,33,30.19,10.0,South,11.5,-,N/A,,Clear,190,2012-11-21 19:53:00
2:53 PM,75.9,46.9,36,30.17,10.0,South,8.1,-,N/A,,Clear,180,2012-11-21 20:53:00
3:53 PM,77.0,46.0,33,30.16,10.0,South,10.4,-,N/A,,Clear,190,2012-11-21 21:53:00
4:53 PM,71.1,45.0,39,30.16,10.0,SSE,4.6,-,N/A,,Clear,160,2012-11-21 22:53:00
5:53 PM,63.0,45.0,52,30.17,10.0,South,8.1,-,N/A,,Clear,180,2012-11-21 23:53:00
6:53 PM,64.0,42.1,45,30.17,9.0,SSE,4.6,-,N/A,,Clear,150,2012-11-22 00:53:00
7:53 PM,61.0,45.0,56,30.17,10.0,SSE,5.8,-,N/A,,Clear,160,2012-11-22 01:53:00
8:53 PM,60.1,45.0,57,30.17,10.0,SSE,4.6,-,N/A,,Clear,150,2012-11-22 02:53:00
9:53 PM,57.9,43.0,58,30.17,10.0,South,3.5,-,N/A,,Clear,180,2012-11-22 03:53:00
10:53 PM,57.0,44.1,62,30.15,10.0,SSE,6.9,-,N/A,,Clear,160,2012-11-22 04:53:00
11:53 PM,55.0,43.0,64,30.13,10.0,SSE,3.5,-,N/A,,Clear,160,2012-11-22 05:53:00